Location: Anumalkud?ru
(16.4847°N, 80.6636°E)
Time: 10:13:51
(UTC+00:00)

CZ-3 R/B - Pass Details

Date: 11 April 2026
Orbit: 564 x 9991 km, 28.2° (Epoch: 12 May)

Event Time Altitude Azimuth Distance (km) Brightness Sun altitude
Rises 19:48:37 0° 244° (WSW) 15,051 7.3 -59.5°
Reaches altitude 10° 20:05:54 10° 246° (WSW) 13,447 6.9 -56.9°
Enters shadow 20:11:37 14° 247° (WSW) 12,763 6.8 -55.9°
Exits shadow 20:57:09 70° 281° (W) 4,350 4.3 -47.5°
Maximum altitude 21:00:44 78° 335° (NNW) 3,697 4.1 -46.8°
Drops below altitude 10° 21:13:06 10° 62° (ENE) 4,107 5.3 -44.2°
Sets 21:15:12 0° 64° (ENE) 4,648 5.8 -43.8°
